SCP
0 0 0 0 0 0 0 0 0 0 0 0 0 0 0 0 0 0 0 0 0 0
0 0 0 0 0 0 0 0 0 0 0 0 0 0 0 0 0 0 0 0 0 0
0 0 0 0 0 0 0 0 0 0 0 0 0 0 0 0 0 0 0 0 0 0
0 0 0 0 0 0 0 0 0 0 0 0 0 0 0 0 0 0 0 0 0 0
0 0 0 0 0 0 0 0 0 0 0 0 0 0 0 0 0 0 0 0 0 0
0 0 0 0 0 0 0 0 0 0 0 0 0 0 0 0 0 0 0 0 0 0
0 0 0 0 0 0 0 0 0 0 0 0 0 0 0 0 0 0 0 0 0 0
0 0 0 0 0 0 0 0 0 0 0 0 0 0 0 0 0 0 0 0 0 0
0 0 0 0 0 0 0 0 0 0 0 0 0 0 0 0 0 0 0 0 0 0
0 0 0 0 0 0 0 0 0 0 0 0 0 0 0 0 0 0 0 0 0 0
0 0 0 0 0 0 0 0 0 0 0 0 0 0 0 0 0 0 0 0 0 0
0 0 0 0 0 0 0 0 0 0 0 0 0 0 0 0 0 0 0 0 0 0
0 0 0 0 0 0 0 0 0 0 0 0 0 0 0 0 0 0 0 0 0 0
0 0 0 0 0 0 0 0 0 0 0 0 0 0 0 0 0 0 0 0 0 0
Wind_Speed_500mb
32 32 35 33 33 34 35 37 39 43 48 50 52 55 58 63 57 52 52 55 58 61
17 23 26 30 34 36 39 42 45 48 51 52 54 54 52 52 55 58 54 57 48 47
27 19 17 19 20 23 24 25 28 31 33 35 39 42 46 49 55 59 57 57 57 57
18 19 16 17 15 15 18 19 17 19 19 21 24 27 31 31 34 37 38 39 40 41
18 15 14 12 10 10 14 16 19 21 24 27 29 30 31 34 37 39 40 42 44 43
20 13 7 4 7 11 15 19 22 23 26 26 28 31 31 32 34 36 38 41 44 46
14 6 3 5 10 13 17 19 23 26 29 31 32 34 37 38 39 40 41 43 47 50
7 2 5 8 12 16 19 22 25 27 30 33 36 38 41 44 48 50 51 49 50 50
6 7 9 14 17 20 23 26 29 33 36 38 41 46 50 54 55 57 59 60 58 57
6 9 13 17 21 25 30 33 37 40 43 44 47 49 51 54 55 56 55 56 58 58
11 16 20 25 29 33 37 41 42 42 44 44 46 49 51 53 53 53 52 53 55 58
16 21 26 32 36 39 40 40 41 43 45 48 50 53 55 56 55 54 51 53 54 58
21 24 26 28 30 34 38 41 44 44 47 51 51 53 55 57 60 61 61 57 57 56
20 23 27 30 33 36 39 41 44 44 44 47 50 50 52 54 55 59 61 62 60 56
Wind_Direction_500mb
222 240 252 260 268 272 276 277 280 283 283 285 286 286 288 288 287 291 293 294 295 296
240 256 260 269 273 274 273 274 276 275 275 276 276 276 277 279 283 285 286 287 286 282
211 238 264 282 285 282 284 286 287 287 284 284 286 285 283 284 287 288 290 288 285 281
234 235 239 242 246 267 289 300 298 300 302 308 307 305 307 311 308 311 311 307 303 301
203 203 214 227 267 288 290 300 302 305 310 313 313 312 312 312 311 310 309 307 305 302
144 143 161 223 273 289 300 307 310 316 317 317 316 317 317 316 313 312 310 308 306 304
127 148 194 288 305 310 313 315 319 321 320 321 321 320 319 316 314 311 309 307 307 307
97 45 336 326 321 322 321 319 318 317 316 316 315 312 311 310 309 307 305 306 307 307
42 6 337 324 322 318 314 316 316 313 310 309 307 306 307 307 307 309 310 308 305 304
357 333 321 317 316 316 312 311 306 303 301 301 300 299 300 301 302 301 301 302 302 301
330 325 321 316 311 306 302 299 297 300 302 303 303 302 302 303 306 309 313 313 313 312
319 316 311 305 301 299 298 303 306 308 311 312 312 312 311 310 311 312 313 312 315 316
303 298 297 299 307 313 317 317 316 317 316 315 315 313 312 312 315 316 315 312 312 313
315 324 329 328 325 323 324 323 320 320 321 319 317 315 313 314 313 313 314 314 313 314
Wind_Speed_850mb
32 32 35 33 33 34 35 37 39 43 48 50 52 55 58 63 57 52 52 55 58 61
17 23 26 30 34 36 39 42 45 48 51 52 54 54 52 52 55 58 54 57 48 47
27 19 17 19 20 23 24 25 28 31 33 35 39 42 46 49 55 59 57 57 57 57
18 19 16 17 15 15 18 19 17 19 19 21 24 27 31 31 34 37 38 39 40 41
18 15 14 12 10 10 14 16 19 21 24 27 29 30 31 34 37 39 40 42 44 43
20 13 7 4 7 11 15 19 22 23 26 26 28 31 31 32 34 36 38 41 44 46
14 6 3 5 10 13 17 19 23 26 29 31 32 34 37 38 39 40 41 43 47 50
7 2 5 8 12 16 19 22 25 27 30 33 36 38 41 44 48 50 51 49 50 50
6 7 9 14 17 20 23 26 29 33 36 38 41 46 50 54 55 57 59 60 58 57
6 9 13 17 21 25 30 33 37 40 43 44 47 49 51 54 55 56 55 56 58 58
11 16 20 25 29 33 37 41 42 42 44 44 46 49 51 53 53 53 52 53 55 58
16 21 26 32 36 39 40 40 41 43 45 48 50 53 55 56 55 54 51 53 54 58
21 24 26 28 30 34 38 41 44 44 47 51 51 53 55 57 60 61 61 57 57 56
20 23 27 30 33 36 39 41 44 44 44 47 50 50 52 54 55 59 61 62 60 56
Wind_Direction_850mb
222 240 252 260 268 272 276 277 280 283 283 285 286 286 288 288 287 291 293 294 295 296
240 256 260 269 273 274 273 274 276 275 275 276 276 276 277 279 283 285 286 287 286 282
211 238 264 282 285 282 284 286 287 287 284 284 286 285 283 284 287 288 290 288 285 281
234 235 239 242 246 267 289 300 298 300 302 308 307 305 307 311 308 311 311 307 303 301
203 203 214 227 267 288 290 300 302 305 310 313 313 312 312 312 311 310 309 307 305 302
144 143 161 223 273 289 300 307 310 316 317 317 316 317 317 316 313 312 310 308 306 304
127 148 194 288 305 310 313 315 319 321 320 321 321 320 319 316 314 311 309 307 307 307
97 45 336 326 321 322 321 319 318 317 316 316 315 312 311 310 309 307 305 306 307 307
42 6 337 324 322 318 314 316 316 313 310 309 307 306 307 307 307 309 310 308 305 304
357 333 321 317 316 316 312 311 306 303 301 301 300 299 300 301 302 301 301 302 302 301
330 325 321 316 311 306 302 299 297 300 302 303 303 302 302 303 306 309 313 313 313 312
319 316 311 305 301 299 298 303 306 308 311 312 312 312 311 310 311 312 313 312 315 316
303 298 297 299 307 313 317 317 316 317 316 315 315 313 312 312 315 316 315 312 312 313
315 324 329 328 325 323 324 323 320 320 321 319 317 315 313 314 313 313 314 314 313 314